Regional Weather Roundup
Issued by NWS

Home | Current Version | Previous Version | Graphics & Text | Print | Product List | Glossary On
Versions: 1 2 3 4 5 6 7 8 9 10 11 12 13 14 15 16 17 18 19 20 21 22 23 24 25 26 27
000
ASUS45 KTFX 222310
RWRMT
MONTANA REGIONAL WEATHER ROUNDUP
NATIONAL WEATHER SERVICE GREAT FALLS MT
500 PM MDT WED MAR 22 2017

NOTE: "FAIR" INDICATES FEW OR NO CLOUDS BELOW 12000 FEET WITH NO
SIGNIFICANT WEATHER AND/OR OBSTRUCTIONS TO VISIBILITY.

MTZ001>007-043-230000-
WEST OF THE DIVIDE

CITY           SKY/WX    TMP DP  RH WIND       PRES   REMARKS
KALISPELL      MOSUNNY   52  38  58 S13       29.82F
MISSOULA       PTSUNNY   57  35  43 N3        29.81F
BUTTE          PTSUNNY   51  22  31 NW13      29.81F
MULLAN PASS    SNOW      33  33 100 VRB6      29.83R VSB 1/4 WCI  28
ANACONDA         N/A     55  23  28 W14       29.80S
DEER LODGE       N/A     52  30  43 NW10      29.82S
EUREKA           N/A     54  34  47 CALM      29.81S
HAMILTON         N/A     57  25  28 W5        29.79F
PLAINS           N/A     54  37  52 W7        29.84S
RONAN            N/A     54  38  54 NE2       29.88S
$$

MTZ008-052>055-230000-
SOUTHWEST MONTANA

CITY           SKY/WX    TMP DP  RH WIND       PRES   REMARKS
BOZEMAN        CLOUDY    57  35  43 NE6       29.77F
DILLON         CLOUDY    51  33  50 SE5       29.81R
W YELLOWSTONE  CLOUDY    43  27  52 SW13G21   29.89S
ENNIS          CLOUDY    54  25  32 S16       29.85S
THREE FORKS      N/A     59  59 100 NW8       29.78F
TWIN BRIDGES     N/A     51  28  41 SE14      29.83R
$$

MTZ009-010-012-014-046-048-049-054-230000-
EAST SLOPES AND CENTRAL MONTANA

CITY           SKY/WX    TMP DP  RH WIND       PRES   REMARKS
CUT BANK       SUNNY     51  28  41 W24       29.71S
GREAT FALLS    MOSUNNY   59  23  25 W20       29.74S
MALMSTROM AFB  MOSUNNY   59  22  24 SW18G29   29.74S
HELENA         CLOUDY    60  27  28 NW13      29.77F
AUGUSTA          N/A     56  22  27 W18G28    29.74S
BOWMANS CRNR     N/A     55  21  26 W17G24    29.74F
CHOTEAU          N/A     59  23  25 W17G24    29.75S
FAIRFIELD        N/A     59  21  22 W23       29.73S
POWER            N/A     58  23  25 W12       29.73S
RAYNESFORD       N/A     58  24  27 NW15G26   29.75S
$$

MTZ011-013-016-021-045-047-050-051-230000-
NORTH CENTRAL MONTANA

CITY           SKY/WX    TMP DP  RH WIND       PRES   REMARKS
HAVRE          MOSUNNY   63  28  26 W14       29.70F
LEWISTOWN      SUNNY     61  22  22 NW8       29.73F
N BAR RANCH    CLOUDY    63  28  27 NE10      29.77S
CHINOOK          N/A     63  27  25 W14G21    29.71R
DENTON         PTSUNNY   62  24  23 NW12      29.69F
FORT BENTON      N/A     63  23  22 MISG      29.73S
GEYSER         PTSUNNY   59  24  25 NW23      29.73S
GRASS RANGE    PTSUNNY   63  19  19 W7        29.70S
STANFORD       PTSUNNY   57  22  25 N20       29.74S
WINIFRED         N/A     62  24  23 NW12      29.73S
$$

MTZ017>020-022>027-061-062-230000-
NORTHEAST MONTANA

CITY           SKY/WX    TMP DP  RH WIND       PRES   REMARKS
GLASGOW        SUNNY     58  37  45 VRB3      29.73F
JORDAN           N/A     67  29  24 MISG      29.72F
SIDNEY         CLOUDY    56  36  47 SE6       29.77F
WOLF POINT     SUNNY     60  36  40 CALM      29.75F
MALTA          SUNNY     64  36  34 SW5       29.70F
PLENTYWOOD       N/A     50  36  57 S6        29.77F
POPLAR           N/A     57  37  47 SW3       29.76S
$$

MTZ028>42-056>058-230000-
SOUTHCENTRAL AND SOUTHEAST MONTANA

CITY           SKY/WX    TMP DP  RH WIND       PRES   REMARKS
BAKER          CLOUDY    54  37  52 NW8       29.79R
BILLINGS       MOSUNNY   64  37  36 SE7       29.73F
LIVINGSTON     SUNNY     60  32  34 W13G23    29.75F
MILES CITY     MOSUNNY   58  37  45 SE3       29.76F
BIG TIMBER     SUNNY     57  36  44 N10       29.78S
EKALAKA          N/A     57  38  49 W5        29.79S
FORSYTH          N/A     61  37  41 E3        29.75S
HARLOWTON      PTSUNNY   62  27  25 W15G23    29.75S
LAUREL           N/A     64  36  35 E8        29.75R
ROUNDUP          N/A     65  30  27 SW7       29.67S
$$

REGIONAL REPORTS...DAKOTAS

CITY           SKY/WX    TMP DP  RH WIND       PRES   REMARKS
WILLISTON      CLOUDY    51  32  48 SE8       29.78F
MINOT          CLOUDY    41  30  65 SE17      29.86F
DICKINSON      CLOUDY    54  35  48 S9        29.77R
BEACH            N/A    N/A N/A N/A MISG        N/A
TIOGA            N/A     41  37  87 SE10      29.82S
WATFORD CITY     N/A     50  36  57 S10       29.80S
BISMARCK       MOSUNNY   48  31  51 S26       29.89F
GRAND FORKS    FLURRIES  30  19  63 SE24G30   30.15F WCI  16
FARGO          CLOUDY    34  19  54 SE24G37   30.16F WCI  21
BUFFALO SD       N/A     58  38  47 SW5       29.71F
RAPID CITY     SUNNY     60  43  53 N15       29.77R
$$

REGIONAL REPORTS...WYOMING/IDAHO/WASHINGTON

CITY           SKY/WX    TMP DP  RH WIND       PRES   REMARKS
GILLETTE       CLOUDY    62  39  42 NE6       29.78F
SHERIDAN       SUNNY     58  41  53 N6        29.78F
BUFFALO WY     CLOUDY    58  40  51 NE3       29.82F
CODY           PTSUNNY   61  35  37 N6        29.76F
YELLOWSTONE LA   N/A     41  26  55 VRB5      29.91F
IDAHO FALLS    CLOUDY    51  35  54 SW8       29.88F
SALMON         MOSUNNY   55  27  33 CALM      29.80S
BOISE          MOSUNNY   60  28  29 W7        29.84F
SPOKANE        CLOUDY    48  42  80 SW16      29.86R
$$

REGIONAL REPORTS...ALBERTA

CITY           SKY/WX    TMP DP  RH WIND       PRES   REMARKS
EDMONTON       PTSUNNY   32  25  74 N9        29.64R WCI  24
CALGARY        MOSUNNY   55  18  22 W16G24    29.62R
LETHBRIDGE     MOSUNNY   57  25  28 W33G44    29.65S
MEDICINE HAT   MOSUNNY   63  28  27 SW24      29.62R
WATERTON GATE    N/A     50  27  40 SW25G37     N/A
CARDSTON         N/A     54  25  32 W17G24      N/A
MILK RIVER       N/A     59  25  27 W18G26      N/A
$$

REGIONAL REPORTS...SASKATCHEWAN

CITY           SKY/WX    TMP DP  RH WIND       PRES   REMARKS
SWIFT CURRENT  SUNNY     59  28  31 W23G31    29.61S
REGINA         MOSUNNY   37  30  75 SE22G28   29.73F WCI  27
SASKATOON      MOSUNNY   48  34  57 S21G30    29.56F
CYPRESS HILLS    N/A     54  21  28 W20G28      N/A
VAL MARIE        N/A     61  27  27 W20G25      N/A
ROCKGLEN         N/A     54  36  50 SW12        N/A
ASSINIBOIA       N/A     28  25  86 NW6         N/A  WCI  22
$$




USA.gov is the U.S. government's official web portal to all federal, state and local government web resources and services.